Regional Weather Roundup
Issued by NWS

Home | Current Version | Previous Version | Text Only | Print | Product List | Glossary On
Versions: 1 2 3 4 5 6 7 8 9 10 11 12 13 14 15 16 17 18 19 20 21 22 23 24 25 26 27 28
000
ASUS45 KCYS 290710
RWRWY

WYOMING REGIONAL WEATHER ROUNDUP
NATIONAL WEATHER SERVICE CHEYENNE WY
100 AM MDT MON AUG 29 2016

NOTE:  "FAIR" INDICATES FEW OR NO CLOUDS BELOW 12,000 FEET
WITH NO SIGNIFICANT WEATHER AND/OR OBSTRUCTIONS TO VISIBILITY.

WYZ001-290800-
YELLOWSTONE NATIONAL PARK

CITY           SKY/WX    TMP DP  RH WIND       PRES   REMARKS
LK YELLOWSTONE   N/A     43  33  68 CALM      30.47S
W YELLOWSTONE  NOT AVBL

$$
WYZ002>013-054>058-071-098>099-290800-
NORTHERN WYOMING

CITY           SKY/WX    TMP DP  RH WIND       PRES   REMARKS
JACKSON        FAIR      48  30  49 N8        30.36S
CODY           FAIR      64  37  36 N5        30.27R
GREYBULL       FAIR      66  38  35 CALM      30.14R
WORLAND        FAIR      62  32  32 S7        30.16R
SHERIDAN       FAIR      60  48  64 CALM      30.19R
BUFFALO        FAIR      64  34  32 W7        30.26R
GILLETTE       FAIR      52  40  63 W3        30.19R
HULETT         FAIR      68  41  37 NE7       30.19S
NEWCASTLE      FAIR      66  37  34 N3        30.17R

$$
WYZ014>020-022>026-101>103-290800-
CENTRAL WYOMING

CITY           SKY/WX    TMP DP  RH WIND       PRES   REMARKS
BIG PINEY      FAIR      49  26  41 N8        30.38R
PINEDALE       FAIR      46  32  57 N3        30.38R
DUBOIS         FAIR      54  27  35 W13       30.39S
LANDER         FAIR      69  30  23 NE3       30.24R
RIVERTON       FAIR      59  32  36 NE7       30.24R
CASPER         FAIR      53  39  59 NW12      30.24R
DOUGLAS        FAIR      54  40  59 CALM      30.20S

$$
WYZ021-027>030-104>119-290800-
SOUTHERN WYOMING

CITY           SKY/WX    TMP DP  RH WIND       PRES   REMARKS
EVANSTON       FAIR      57  28  33 SE8       30.39R
FORT BRIDGER   FAIR      62  28  28 W8        30.39S
ROCK SPRINGS   FAIR      60  24  25 W9        30.32R
DIXON          FAIR      50  35  56 CALM      30.35S
RAWLINS        FAIR      50  27  40 NW9       30.33R
SARATOGA       FAIR      55  36  47 S12G17    30.35S
LARAMIE        FAIR      52  43  71 S9        30.35S
CHEYENNE       FAIR      61  44  53 SW9       30.30R
TORRINGTON     FAIR      61  44  53 E9        30.16R
PINE BLUFFS    FAIR      59  46  63 SW6       30.24R

$$




USA.gov is the U.S. government's official web portal to all federal, state and local government web resources and services.